timestamp,wind_dir_avg,wind_spd_avg,wind_spd_max_dir,wind_spd_gust,battery_voltage,lat,long
2019-11-26 00:04:01+00:00,245.0,6.94,246.0,7.92,12.41,47.59359,-54.27349
2019-11-26 00:14:01+00:00,247.0,5.87,249.0,7.6,12.41,47.59359,-54.27349
2019-11-26 00:24:01+00:00,237.0,6.86,234.0,8.33,12.41,47.59359,-54.27349
2019-11-26 00:34:01+00:00,231.0,8.51,226.0,10.07,12.41,47.59359,-54.27349
2019-11-26 00:44:01+00:00,229.0,8.83,228.0,9.79,12.41,47.59359,-54.27349
2019-11-26 00:54:01+00:00,226.0,7.81,223.0,8.62,12.41,47.59359,-54.27349
2019-11-26 01:04:01+00:00,224.0,7.77,227.0,8.66,12.41,47.59359,-54.27349
2019-11-26 01:14:01+00:00,228.0,7.46,227.0,8.41,12.41,47.59359,-54.27349
2019-11-26 01:24:01+00:00,229.0,6.83,234.0,7.94,12.41,47.59359,-54.27349
2019-11-26 01:34:01+00:00,224.0,6.87,233.0,7.69,12.41,47.59359,-54.27349
2019-11-26 01:44:01+00:00,228.0,8.09,227.0,9.3,12.41,47.59359,-54.27349
2019-11-26 01:54:01+00:00,230.0,7.69,229.0,8.71,12.41,47.59359,-54.27349
2019-11-26 02:04:01+00:00,227.0,7.29,224.0,8.35,12.41,47.59359,-54.27349
2019-11-26 02:14:01+00:00,237.0,6.59,239.0,7.54,12.41,47.59359,-54.27349
2019-11-26 02:24:01+00:00,232.0,7.89,231.0,8.88,12.41,47.59359,-54.27349
2019-11-26 02:34:01+00:00,236.0,7.85,237.0,9.55,12.41,47.59359,-54.27349
2019-11-26 02:44:01+00:00,233.0,8.17,232.0,9.44,12.41,47.59359,-54.27349
2019-11-26 02:54:01+00:00,226.0,7.96,227.0,8.88,12.41,47.59359,-54.27349
2019-11-26 03:04:01+00:00,235.0,8.54,233.0,10.16,12.41,47.59359,-54.27349
2019-11-26 03:14:01+00:00,242.0,8.5,232.0,9.9,12.41,47.59359,-54.27349
2019-11-26 03:24:01+00:00,238.0,8.76,228.0,9.8,12.41,47.59359,-54.27349
2019-11-26 03:34:01+00:00,241.0,8.73,243.0,11.16,12.41,47.59359,-54.27349
2019-11-26 03:44:01+00:00,241.0,9.0,237.0,10.27,12.41,47.59359,-54.27349
2019-11-26 03:54:01+00:00,241.0,9.26,245.0,13.28,12.41,47.59359,-54.27349
2019-11-26 04:04:01+00:00,253.0,10.43,251.0,11.69,12.41,47.59359,-54.27349
2019-11-26 04:14:01+00:00,261.0,11.37,261.0,12.33,12.41,47.59359,-54.27349
2019-11-26 04:24:01+00:00,258.0,9.4,253.0,12.57,12.41,47.59359,-54.27349
2019-11-26 04:34:01+00:00,253.0,11.42,251.0,12.48,12.41,47.59359,-54.27349
2019-11-26 04:44:01+00:00,252.0,11.53,253.0,12.82,12.41,47.59359,-54.27349
2019-11-26 04:54:01+00:00,244.0,12.26,240.0,14.99,12.41,47.59359,-54.27349
2019-11-26 05:04:01+00:00,254.0,11.55,252.0,12.69,12.41,47.59359,-54.27349
2019-11-26 05:14:01+00:00,256.0,12.33,253.0,13.51,12.41,47.59359,-54.27349
2019-11-26 05:24:01+00:00,258.0,11.0,264.0,12.48,12.41,47.59359,-54.27349
2019-11-26 05:34:01+00:00,259.0,12.09,261.0,14.67,12.41,47.59359,-54.27349
2019-11-26 05:44:01+00:00,260.0,10.15,262.0,11.4,12.41,47.59359,-54.27349
2019-11-26 05:54:01+00:00,254.0,10.85,258.0,12.75,12.41,47.59359,-54.27349
2019-11-26 06:04:01+00:00,256.0,10.38,261.0,13.99,12.41,47.59359,-54.27349
2019-11-26 06:14:01+00:00,261.0,11.93,261.0,13.27,12.41,47.59359,-54.27349
2019-11-26 06:24:01+00:00,260.0,10.39,262.0,12.08,12.41,47.59359,-54.27349
2019-11-26 06:34:01+00:00,254.0,11.27,255.0,13.3,12.41,47.59359,-54.27349
2019-11-26 06:44:01+00:00,258.0,9.39,263.0,11.21,12.41,47.59359,-54.27349
2019-11-26 06:54:01+00:00,257.0,8.73,253.0,10.11,12.41,47.59359,-54.27349
2019-11-26 07:04:01+00:00,257.0,10.15,257.0,11.34,12.41,47.59359,-54.27349
2019-11-26 07:14:01+00:00,260.0,10.3,262.0,11.31,12.33,47.59359,-54.27349
2019-11-26 07:24:01+00:00,263.0,9.93,264.0,10.88,12.33,47.59359,-54.27349
2019-11-26 07:34:01+00:00,263.0,10.0,267.0,11.42,12.33,47.59359,-54.27349
2019-11-26 07:44:01+00:00,262.0,10.43,262.0,11.77,12.33,47.59359,-54.27349
2019-11-26 07:54:01+00:00,268.0,10.66,266.0,11.77,12.33,47.59359,-54.27349
2019-11-26 08:04:01+00:00,262.0,11.39,258.0,13.6,12.33,47.59359,-54.27349
2019-11-26 08:14:01+00:00,265.0,10.92,268.0,12.81,12.33,47.59359,-54.27349
2019-11-26 08:24:01+00:00,270.0,11.11,269.0,13.14,12.33,47.59359,-54.27349
2019-11-26 08:34:01+00:00,274.0,10.62,275.0,13.23,12.33,47.59359,-54.27349
2019-11-26 08:44:01+00:00,271.0,12.58,270.0,15.01,12.33,47.59359,-54.27349
2019-11-26 08:54:01+00:00,279.0,11.91,278.0,13.61,12.33,47.59359,-54.27349
2019-11-26 09:04:01+00:00,276.0,10.19,279.0,12.31,12.33,47.59359,-54.27349
2019-11-26 09:14:01+00:00,275.0,10.57,266.0,12.69,12.33,47.59359,-54.27349
2019-11-26 09:24:01+00:00,268.0,8.87,269.0,10.26,12.33,47.59359,-54.27349
2019-11-26 09:34:01+00:00,271.0,9.7,278.0,11.03,12.33,47.59359,-54.27349
2019-11-26 09:44:01+00:00,269.0,8.85,271.0,12.45,12.33,47.59359,-54.27349
2019-11-26 09:54:01+00:00,269.0,8.14,269.0,9.59,12.33,47.59359,-54.27349
2019-11-26 10:04:01+00:00,266.0,7.55,272.0,8.78,12.33,47.59359,-54.27349
2019-11-26 10:14:01+00:00,275.0,7.42,283.0,10.02,12.33,47.59359,-54.27349
2019-11-26 10:24:01+00:00,275.0,8.05,280.0,9.61,12.33,47.59359,-54.27349
2019-11-26 10:34:01+00:00,285.0,7.78,284.0,9.45,12.33,47.59359,-54.27349
2019-11-26 10:44:01+00:00,286.0,8.48,284.0,10.32,12.33,47.59359,-54.27349
2019-11-26 10:54:01+00:00,276.0,7.72,271.0,8.91,12.33,47.59359,-54.27349
2019-11-26 11:04:01+00:00,271.0,7.38,267.0,8.57,12.33,47.59359,-54.27349
2019-11-26 11:14:01+00:00,271.0,9.31,277.0,11.75,12.33,47.59359,-54.27349
2019-11-26 11:24:01+00:00,273.0,10.32,270.0,11.76,12.33,47.59359,-54.27349
2019-11-26 11:34:01+00:00,268.0,9.14,271.0,10.33,12.33,47.59359,-54.27349
2019-11-26 11:44:01+00:00,264.0,9.34,265.0,10.49,12.33,47.59359,-54.27349
2019-11-26 11:54:01+00:00,254.0,9.83,253.0,11.22,12.33,47.59359,-54.27349
2019-11-26 12:04:01+00:00,266.0,8.73,265.0,10.8,12.33,47.59359,-54.27349
2019-11-26 12:14:01+00:00,262.0,9.91,257.0,11.3,12.41,47.59359,-54.27349
2019-11-26 12:24:01+00:00,269.0,11.31,271.0,13.42,12.41,47.59359,-54.27349
2019-11-26 12:34:01+00:00,277.0,9.1,272.0,10.6,12.41,47.59359,-54.27349
2019-11-26 12:44:01+00:00,277.0,9.42,271.0,12.21,12.41,47.59359,-54.27349
2019-11-26 12:54:01+00:00,272.0,9.73,268.0,11.86,12.41,47.59359,-54.27349
2019-11-26 13:04:01+00:00,276.0,10.26,277.0,11.22,12.41,47.59359,-54.27349
2019-11-26 13:14:01+00:00,264.0,10.21,263.0,12.39,13.53,47.59359,-54.27349
2019-11-26 13:24:01+00:00,276.0,11.94,281.0,14.61,13.53,47.59359,-54.27349
2019-11-26 13:34:01+00:00,272.0,11.52,269.0,12.85,13.53,47.59359,-54.27349
2019-11-26 13:44:01+00:00,273.0,10.31,275.0,11.95,13.53,47.59359,-54.27349
2019-11-26 13:54:01+00:00,273.0,13.63,277.0,17.08,13.53,47.59359,-54.27349
2019-11-26 14:04:01+00:00,277.0,9.26,280.0,10.84,13.53,47.59359,-54.27349
2019-11-26 14:14:01+00:00,275.0,12.4,272.0,14.96,13.76,47.59359,-54.27349
2019-11-26 14:24:01+00:00,282.0,11.56,284.0,13.04,13.76,47.59359,-54.27349
2019-11-26 14:34:01+00:00,273.0,12.95,277.0,15.48,13.76,47.59359,-54.27349
2019-11-26 14:44:01+00:00,279.0,13.43,282.0,15.26,13.76,47.59359,-54.27349
2019-11-26 14:54:01+00:00,283.0,9.66,282.0,10.8,13.76,47.59359,-54.27349
2019-11-26 15:04:01+00:00,277.0,10.19,279.0,11.77,13.76,47.59359,-54.27349
2019-11-26 15:14:01+00:00,275.0,10.67,280.0,12.26,13.68,47.59359,-54.27349
2019-11-26 15:24:01+00:00,281.0,11.74,284.0,13.75,13.68,47.59359,-54.27349
2019-11-26 15:34:01+00:00,275.0,11.66,270.0,14.6,13.68,47.59359,-54.27349
2019-11-26 15:44:01+00:00,279.0,14.04,282.0,15.82,13.68,47.59359,-54.27349
2019-11-26 15:54:01+00:00,273.0,11.83,278.0,12.88,13.68,47.59359,-54.27349
2019-11-26 16:04:01+00:00,272.0,13.04,272.0,15.72,13.68,47.59359,-54.27349
2019-11-26 16:14:01+00:00,270.0,15.03,279.0,17.82,14.32,47.59359,-54.27349
2019-11-26 16:24:01+00:00,272.0,14.39,270.0,17.0,14.32,47.59359,-54.27349
2019-11-26 16:34:01+00:00,282.0,13.81,284.0,15.51,14.32,47.59359,-54.27349
2019-11-26 16:44:01+00:00,279.0,11.76,283.0,15.12,14.32,47.59359,-54.27349
2019-11-26 16:54:01+00:00,281.0,11.53,284.0,13.13,14.32,47.59359,-54.27349
2019-11-26 17:04:01+00:00,273.0,12.95,274.0,15.12,14.32,47.59359,-54.27349
2019-11-26 17:14:01+00:00,269.0,12.11,270.0,14.89,13.44,47.59359,-54.27349
2019-11-26 17:24:01+00:00,271.0,10.7,265.0,12.16,13.44,47.59359,-54.27349
2019-11-26 17:34:01+00:00,270.0,15.71,269.0,17.46,13.44,47.59359,-54.27349
2019-11-26 17:44:01+00:00,279.0,12.3,288.0,13.93,13.44,47.59359,-54.27349
2019-11-26 17:54:01+00:00,266.0,12.0,268.0,13.23,13.44,47.59359,-54.27349
2019-11-26 18:04:01+00:00,275.0,10.54,274.0,12.36,13.44,47.59359,-54.27349
2019-11-26 18:14:01+00:00,268.0,12.16,264.0,14.0,13.37,47.59359,-54.27349
2019-11-26 18:24:01+00:00,267.0,12.73,268.0,14.49,13.37,47.59359,-54.27349
2019-11-26 18:34:01+00:00,262.0,10.66,261.0,13.58,13.37,47.59359,-54.27349
2019-11-26 18:44:01+00:00,276.0,10.89,285.0,12.88,13.37,47.59359,-54.27349
2019-11-26 18:54:01+00:00,274.0,10.49,272.0,11.76,13.37,47.59359,-54.27349
2019-11-26 19:04:01+00:00,276.0,9.07,281.0,10.5,13.37,47.59359,-54.27349
2019-11-26 19:14:01+00:00,259.0,9.8,261.0,10.96,13.68,47.59359,-54.27349
2019-11-26 19:24:01+00:00,266.0,10.24,272.0,11.86,13.68,47.59359,-54.27349
2019-11-26 19:34:01+00:00,265.0,12.18,259.0,13.81,13.68,47.59359,-54.27349
2019-11-26 19:44:01+00:00,256.0,11.5,254.0,13.26,13.68,47.59359,-54.27349
2019-11-26 19:54:01+00:00,258.0,11.68,263.0,13.51,13.68,47.59359,-54.27349
2019-11-26 20:04:01+00:00,260.0,11.43,258.0,12.77,13.68,47.59359,-54.27349
2019-11-26 20:14:01+00:00,274.0,13.72,277.0,16.39,12.81,47.59359,-54.27349
2019-11-26 20:24:01+00:00,264.0,12.62,267.0,13.8,12.81,47.59359,-54.27349
2019-11-26 20:34:01+00:00,262.0,12.98,262.0,14.51,12.81,47.59359,-54.27349
2019-11-26 20:44:01+00:00,266.0,13.86,262.0,17.01,12.81,47.59359,-54.27349
2019-11-26 20:54:01+00:00,270.0,13.5,271.0,15.32,12.81,47.59359,-54.27349
2019-11-26 21:04:01+00:00,265.0,11.9,266.0,13.61,12.81,47.59359,-54.27349
2019-11-26 21:14:01+00:00,271.0,14.46,275.0,16.39,12.65,47.59359,-54.27349
2019-11-26 21:24:01+00:00,272.0,13.25,272.0,14.36,12.65,47.59359,-54.27349
2019-11-26 21:34:01+00:00,273.0,14.41,275.0,16.84,12.65,47.59359,-54.27349
2019-11-26 21:44:01+00:00,274.0,12.56,276.0,15.34,12.65,47.59359,-54.27349
2019-11-26 21:54:01+00:00,280.0,10.93,278.0,13.6,12.65,47.59359,-54.27349
2019-11-26 22:04:01+00:00,270.0,9.8,272.0,10.92,12.65,47.59359,-54.27349
2019-11-26 22:14:01+00:00,271.0,10.28,269.0,11.61,12.65,47.59359,-54.27349
2019-11-26 22:24:01+00:00,266.0,11.78,270.0,14.2,12.65,47.59359,-54.27349
2019-11-26 22:34:01+00:00,273.0,11.55,276.0,13.23,12.65,47.59359,-54.27349
2019-11-26 22:44:01+00:00,267.0,10.89,267.0,12.76,12.65,47.59359,-54.27349
2019-11-26 22:54:01+00:00,273.0,10.73,278.0,13.33,12.65,47.59359,-54.27349
2019-11-26 23:04:01+00:00,260.0,9.85,264.0,10.99,12.65,47.59359,-54.27349
2019-11-26 23:14:01+00:00,270.0,10.13,275.0,11.92,12.65,47.59359,-54.27349
2019-11-26 23:24:01+00:00,263.0,10.73,265.0,14.82,12.65,47.59359,-54.27349
2019-11-26 23:34:01+00:00,271.0,10.88,268.0,14.76,12.65,47.59359,-54.27349
2019-11-26 23:44:01+00:00,271.0,11.92,269.0,14.36,12.65,47.59359,-54.27349
2019-11-26 23:54:01+00:00,274.0,9.88,283.0,11.55,12.65,47.59359,-54.27349
